User: anonymous   Login
Location: Chena
(64.8152°N, 147.9227°W)
Time: 07:31:32
(UTC+00:00)
Language:

N. Korean satellite - Orbit

View from above orbital plane
View from above orbital plane
View from above satellite
View from above satellite

Ground track
Ground track

The orbit data is extracted from the following two-line orbital elements,

1 39026U 12072A   21067.83015428  .00003159  00000-0  11020-3 0  9994
2 39026  97.2401  63.2056 0036946  25.8443 334.4633 15.29697931457645
Epoch (UTC): 08 March 2021 19:55:25
Eccentricity: 0.0036946
inclination: 97.2401°
perigee height: 451 km
apogee height: 502 km
right ascension of ascending node: 63.2056°
argument of perigee: 25.8443°
revolutions per day: 15.29697931
mean anomaly at epoch: 334.4633°
orbit number at epoch: 45764

The dashed part of the orbit path shows where the satellite is in the earth's shadow,  

DLR